Time,TemperatureF,DewpointF,PressureIn,WindDirection,WindDirectionDegrees,WindSpeedMPH,WindSpeedGustMPH,Humidity,HourlyPrecipIn,Conditions,Clouds,dailyrainin,SoftwareType,DateUTC
2013-09-11 00:02:00,50.7,49.8,30.08,East,90,2.0,6.0,97,0.06,,,0.51,meteohub,2013-09-11 06:02:00,
2013-09-11 00:07:00,50.7,49.8,30.08,East,90,2.0,4.0,97,0.06,,,0.00,meteohub,2013-09-11 06:07:00,
2013-09-11 00:17:00,50.7,49.8,30.08,East,90,2.0,3.0,97,0.06,,,0.04,meteohub,2013-09-11 06:17:00,
2013-09-11 00:22:00,50.7,49.8,30.08,North,0,2.0,3.0,97,0.06,,,0.04,meteohub,2013-09-11 06:22:00,
2013-09-11 00:27:00,50.7,49.8,30.08,NE,45,0.0,4.0,97,0.07,,,0.05,meteohub,2013-09-11 06:27:00,
2013-09-11 00:32:00,50.7,49.8,30.08,North,0,1.0,4.0,97,0.07,,,0.05,meteohub,2013-09-11 06:32:00,
2013-09-11 00:37:00,50.5,49.6,30.09,ENE,68,2.0,4.0,97,0.07,,,0.05,meteohub,2013-09-11 06:37:00,
2013-09-11 00:42:00,50.5,49.6,30.08,East,90,3.0,3.0,97,0.08,,,0.06,meteohub,2013-09-11 06:42:00,
2013-09-11 00:52:00,50.5,49.6,30.08,SE,135,2.0,3.0,97,0.07,,,0.06,meteohub,2013-09-11 06:52:00,
2013-09-11 00:57:00,50.7,49.8,30.08,South,180,2.0,3.0,97,0.07,,,0.06,meteohub,2013-09-11 06:57:00,
2013-09-11 01:02:00,50.5,49.6,30.08,SE,135,2.0,2.0,97,0.07,,,0.07,meteohub,2013-09-11 07:02:00,
2013-09-11 01:07:00,50.5,49.6,30.08,SE,135,2.0,2.0,97,0.07,,,0.07,meteohub,2013-09-11 07:07:00,
2013-09-11 01:12:00,50.5,49.6,30.08,NE,45,0.0,2.0,97,0.05,,,0.07,meteohub,2013-09-11 07:12:00,
2013-09-11 01:17:00,50.5,49.6,30.07,North,0,2.0,2.0,97,0.06,,,0.09,meteohub,2013-09-11 07:17:00,
2013-09-11 01:22:00,50.5,49.6,30.08,West,270,2.0,2.0,97,0.05,,,0.09,meteohub,2013-09-11 07:22:00,
2013-09-11 01:27:00,50.5,49.6,30.07,North,0,1.0,2.0,97,0.05,,,0.09,meteohub,2013-09-11 07:27:00,
2013-09-11 01:32:00,50.4,49.5,30.08,North,0,2.0,2.0,97,0.05,,,0.09,meteohub,2013-09-11 07:32:00,
2013-09-11 01:37:00,50.5,49.6,30.07,NE,45,2.0,2.0,97,0.05,,,0.09,meteohub,2013-09-11 07:37:00,
2013-09-11 01:42:00,50.5,49.6,30.07,North,0,1.0,2.0,97,0.04,,,0.09,meteohub,2013-09-11 07:42:00,
2013-09-11 01:47:00,50.5,49.6,30.07,North,0,0.0,2.0,97,0.04,,,0.09,meteohub,2013-09-11 07:47:00,
2013-09-11 01:52:00,50.5,49.6,30.07,NE,45,0.0,2.0,97,0.04,,,0.09,meteohub,2013-09-11 07:52:00,
2013-09-11 01:57:00,50.4,49.5,30.08,NW,315,2.0,2.0,97,0.02,,,0.09,meteohub,2013-09-11 07:57:00,
2013-09-11 02:02:00,50.4,49.5,30.08,NW,315,0.0,2.0,97,0.02,,,0.09,meteohub,2013-09-11 08:02:00,
2013-09-11 02:07:00,50.4,49.5,30.08,NW,315,0.0,2.0,97,0.02,,,0.09,meteohub,2013-09-11 08:07:00,
2013-09-11 02:12:00,50.5,49.6,30.07,North,0,0.0,2.0,97,0.00,,,0.09,meteohub,2013-09-11 08:12:00,
2013-09-11 02:17:00,50.4,49.5,30.07,South,180,2.0,2.0,97,0.00,,,0.09,meteohub,2013-09-11 08:17:00,
2013-09-11 02:22:00,50.4,49.5,30.07,South,180,0.0,2.0,97,0.00,,,0.09,meteohub,2013-09-11 08:22:00,
2013-09-11 02:27:00,50.4,49.5,30.07,NE,45,1.0,2.0,97,0.01,,,0.11,meteohub,2013-09-11 08:27:00,
2013-09-11 02:32:00,50.4,49.5,30.07,ESE,113,1.0,2.0,97,0.01,,,0.11,meteohub,2013-09-11 08:32:00,
2013-09-11 02:37:00,50.4,49.5,30.07,SE,135,0.0,2.0,97,0.01,,,0.11,meteohub,2013-09-11 08:37:00,
2013-09-11 02:42:00,50.4,49.5,30.07,SE,135,1.0,2.0,97,0.01,,,0.11,meteohub,2013-09-11 08:42:00,
2013-09-11 02:47:00,50.4,49.5,30.07,South,180,1.0,2.0,97,0.01,,,0.11,meteohub,2013-09-11 08:47:00,
2013-09-11 02:52:00,50.4,49.5,30.07,SE,135,0.0,2.0,97,0.01,,,0.11,meteohub,2013-09-11 08:52:00,
2013-09-11 03:02:00,50.5,49.6,30.06,SE,135,0.0,2.0,97,0.01,,,0.11,meteohub,2013-09-11 09:02:00,
2013-09-11 03:07:00,50.5,49.6,30.06,SE,135,0.0,1.0,97,0.01,,,0.11,meteohub,2013-09-11 09:07:00,
2013-09-11 03:12:00,50.5,49.6,30.06,SW,225,0.0,0.0,97,0.01,,,0.11,meteohub,2013-09-11 09:12:00,
2013-09-11 03:22:00,50.5,49.6,30.06,SW,225,0.0,0.0,97,0.01,,,0.11,meteohub,2013-09-11 09:22:00,
2013-09-11 03:27:00,50.5,49.6,30.06,SW,225,0.0,1.0,97,0.00,,,0.11,meteohub,2013-09-11 09:27:00,
2013-09-11 03:32:00,50.5,49.6,30.07,SW,225,0.0,1.0,97,0.00,,,0.11,meteohub,2013-09-11 09:32:00,
2013-09-11 03:37:00,50.5,49.6,30.06,SW,225,0.0,1.0,97,0.00,,,0.11,meteohub,2013-09-11 09:37:00,
2013-09-11 03:42:00,50.4,49.5,30.06,North,0,0.0,1.0,97,0.00,,,0.11,meteohub,2013-09-11 09:42:00,
2013-09-11 03:47:00,50.5,49.6,30.06,North,0,1.0,1.0,97,0.00,,,0.11,meteohub,2013-09-11 09:47:00,
2013-09-11 03:52:00,50.4,49.5,30.06,North,0,0.0,1.0,97,0.00,,,0.11,meteohub,2013-09-11 09:52:00,
2013-09-11 03:57:00,50.5,49.6,30.06,North,0,0.0,1.0,97,0.00,,,0.11,meteohub,2013-09-11 09:57:00,
2013-09-11 04:02:00,50.4,49.5,30.06,North,0,0.0,1.0,97,0.00,,,0.11,meteohub,2013-09-11 10:02:00,
2013-09-11 04:07:00,50.4,49.5,30.06,North,0,0.0,0.0,97,0.00,,,0.11,meteohub,2013-09-11 10:07:00,
2013-09-11 04:12:00,50.5,49.6,30.05,NE,45,0.0,0.0,97,0.00,,,0.11,meteohub,2013-09-11 10:12:00,
2013-09-11 04:17:00,50.5,49.6,30.06,North,0,0.0,0.0,97,0.00,,,0.11,meteohub,2013-09-11 10:17:00,
2013-09-11 04:22:00,50.5,49.6,30.06,South,180,0.0,0.0,97,0.00,,,0.11,meteohub,2013-09-11 10:22:00,
2013-09-11 04:27:00,50.5,49.6,30.06,SE,135,0.0,0.0,97,0.00,,,0.11,meteohub,2013-09-11 10:27:00,
2013-09-11 04:32:00,50.5,49.6,30.06,SE,135,1.0,2.0,97,0.00,,,0.11,meteohub,2013-09-11 10:32:00,
2013-09-11 04:37:00,50.5,49.6,30.06,North,0,2.0,3.0,97,0.00,,,0.11,meteohub,2013-09-11 10:37:00,
2013-09-11 04:42:00,50.5,49.6,30.06,North,0,1.0,3.0,97,0.00,,,0.11,meteohub,2013-09-11 10:42:00,
2013-09-11 04:47:00,50.5,49.6,30.06,NE,45,0.0,2.0,97,0.00,,,0.11,meteohub,2013-09-11 10:47:00,
2013-09-11 04:52:00,50.5,49.6,30.06,East,90,2.0,2.0,97,0.00,,,0.11,meteohub,2013-09-11 10:52:00,
2013-09-11 04:57:00,50.7,49.8,30.06,NE,45,1.0,2.0,97,0.00,,,0.11,meteohub,2013-09-11 10:57:00,
2013-09-11 05:02:00,50.7,49.8,30.06,NE,45,0.0,2.0,97,0.00,,,0.11,meteohub,2013-09-11 11:02:00,
2013-09-11 05:07:00,50.7,49.8,30.06,NE,45,0.0,2.0,97,0.00,,,0.11,meteohub,2013-09-11 11:07:00,
2013-09-11 05:12:00,50.5,49.6,30.06,North,0,1.0,2.0,97,0.00,,,0.11,meteohub,2013-09-11 11:12:00,
2013-09-11 05:22:00,50.7,49.8,30.05,NE,45,0.0,2.0,97,0.00,,,0.11,meteohub,2013-09-11 11:22:00,
2013-09-11 05:27:00,50.7,49.8,30.05,NE,45,0.0,2.0,97,0.00,,,0.11,meteohub,2013-09-11 11:27:00,
2013-09-11 05:32:00,50.7,49.8,30.06,North,0,0.0,0.0,97,0.00,,,0.11,meteohub,2013-09-11 11:32:00,
2013-09-11 05:37:00,50.7,49.8,30.06,East,90,0.0,0.0,97,0.00,,,0.11,meteohub,2013-09-11 11:37:00,
2013-09-11 05:42:00,50.7,49.8,30.06,East,90,0.0,0.0,97,0.00,,,0.11,meteohub,2013-09-11 11:42:00,
2013-09-11 05:47:00,50.7,49.8,30.06,East,90,0.0,0.0,97,0.00,,,0.11,meteohub,2013-09-11 11:47:00,
2013-09-11 05:52:00,50.7,49.8,30.06,East,90,0.0,0.0,97,0.00,,,0.11,meteohub,2013-09-11 11:52:00,
2013-09-11 06:02:00,50.9,50.0,30.06,East,90,0.0,0.0,97,0.00,,,0.11,meteohub,2013-09-11 12:02:00,
2013-09-11 06:07:00,50.9,50.0,30.06,East,90,0.0,0.0,97,0.00,,,0.11,meteohub,2013-09-11 12:07:00,
2013-09-11 06:12:00,50.9,50.0,30.06,East,90,0.0,0.0,97,0.00,,,0.11,meteohub,2013-09-11 12:12:00,
2013-09-11 06:17:00,50.9,50.0,30.06,East,90,0.0,0.0,97,0.00,,,0.11,meteohub,2013-09-11 12:17:00,
2013-09-11 06:22:00,50.9,50.0,30.06,North,0,0.0,0.0,97,0.00,,,0.11,meteohub,2013-09-11 12:22:00,
2013-09-11 06:27:00,51.1,50.2,30.06,NE,45,2.0,3.0,97,0.00,,,0.11,meteohub,2013-09-11 12:27:00,
2013-09-11 06:32:00,51.1,50.2,30.06,NE,45,1.0,3.0,97,0.00,,,0.11,meteohub,2013-09-11 12:32:00,
2013-09-11 06:37:00,51.1,50.2,30.06,NE,45,2.0,4.0,97,0.01,,,0.12,meteohub,2013-09-11 12:37:00,
2013-09-11 06:47:00,51.1,50.2,30.06,NE,45,2.0,2.0,97,0.01,,,0.12,meteohub,2013-09-11 12:47:00,
2013-09-11 06:52:00,51.3,50.4,30.06,SE,135,1.0,3.0,97,0.01,,,0.12,meteohub,2013-09-11 12:52:00,
2013-09-11 06:57:00,51.3,50.4,30.06,North,0,0.0,3.0,97,0.01,,,0.12,meteohub,2013-09-11 12:57:00,
2013-09-11 07:02:00,51.3,50.4,30.06,North,0,2.0,2.0,97,0.01,,,0.12,meteohub,2013-09-11 13:02:00,
2013-09-11 07:07:00,51.3,50.4,30.06,North,0,2.0,2.0,97,0.01,,,0.12,meteohub,2013-09-11 13:07:00,
2013-09-11 07:12:00,51.3,50.4,30.06,NE,45,0.0,2.0,97,0.01,,,0.12,meteohub,2013-09-11 13:12:00,
2013-09-11 07:17:00,51.4,50.5,30.06,NE,45,0.0,2.0,97,0.01,,,0.12,meteohub,2013-09-11 13:17:00,
2013-09-11 07:22:00,51.4,50.5,30.07,East,90,0.0,2.0,97,0.01,,,0.12,meteohub,2013-09-11 13:22:00,
2013-09-11 07:27:00,51.4,50.5,30.06,East,90,0.0,2.0,97,0.01,,,0.12,meteohub,2013-09-11 13:27:00,
2013-09-11 07:32:00,51.6,50.7,30.06,NE,45,0.0,0.0,97,0.00,,,0.12,meteohub,2013-09-11 13:32:00,
2013-09-11 07:37:00,51.6,50.7,30.06,SE,135,0.0,0.0,97,0.00,,,0.12,meteohub,2013-09-11 13:37:00,
2013-09-11 07:42:00,51.6,50.7,30.06,NE,45,0.0,0.0,97,0.00,,,0.12,meteohub,2013-09-11 13:42:00,
2013-09-11 07:47:00,51.6,50.7,30.07,East,90,0.0,0.0,97,0.00,,,0.12,meteohub,2013-09-11 13:47:00,
2013-09-11 07:52:00,51.6,50.7,30.07,South,180,0.0,0.0,97,0.00,,,0.12,meteohub,2013-09-11 13:52:00,
2013-09-11 07:57:00,51.6,50.7,30.06,NE,45,0.0,3.0,97,0.00,,,0.12,meteohub,2013-09-11 13:57:00,
2013-09-11 08:02:00,51.6,50.7,30.07,East,90,1.0,3.0,97,0.00,,,0.12,meteohub,2013-09-11 14:02:00,
2013-09-11 08:07:00,51.6,50.7,30.06,East,90,1.0,3.0,97,0.00,,,0.12,meteohub,2013-09-11 14:07:00,
2013-09-11 08:12:00,51.6,50.7,30.06,NE,45,3.0,3.0,97,0.00,,,0.12,meteohub,2013-09-11 14:12:00,
2013-09-11 08:17:00,51.6,50.7,30.06,ENE,68,2.0,3.0,97,0.01,,,0.13,meteohub,2013-09-11 14:17:00,
2013-09-11 08:22:00,51.6,50.7,30.07,NE,45,2.0,3.0,97,0.01,,,0.13,meteohub,2013-09-11 14:22:00,
2013-09-11 08:27:00,51.8,50.9,30.06,East,90,1.0,3.0,97,0.01,,,0.13,meteohub,2013-09-11 14:27:00,
2013-09-11 08:32:00,51.8,50.9,30.06,NE,45,2.0,4.0,97,0.01,,,0.13,meteohub,2013-09-11 14:32:00,
2013-09-11 08:37:00,51.8,50.9,30.06,East,90,2.0,4.0,97,0.01,,,0.13,meteohub,2013-09-11 14:37:00,
2013-09-11 08:42:00,51.6,50.7,30.07,East,90,4.0,4.0,97,0.01,,,0.13,meteohub,2013-09-11 14:42:00,
2013-09-11 08:47:00,51.6,50.7,30.07,East,90,2.0,4.0,97,0.01,,,0.13,meteohub,2013-09-11 14:47:00,
2013-09-11 08:52:00,51.8,50.9,30.07,NE,45,1.0,4.0,97,0.01,,,0.13,meteohub,2013-09-11 14:52:00,
2013-09-11 08:57:00,52.0,51.1,30.06,East,90,2.0,4.0,97,0.01,,,0.13,meteohub,2013-09-11 14:57:00,
2013-09-11 09:02:00,51.8,50.9,30.07,North,0,4.0,4.0,97,0.01,,,0.13,meteohub,2013-09-11 15:02:00,
2013-09-11 09:07:00,51.8,50.9,30.06,North,0,4.0,4.0,97,0.01,,,0.13,meteohub,2013-09-11 15:07:00,
2013-09-11 09:12:00,51.6,50.7,30.07,North,0,4.0,4.0,97,0.01,,,0.13,meteohub,2013-09-11 15:12:00,
2013-09-11 09:17:00,51.6,50.7,30.07,NE,45,2.0,4.0,97,0.00,,,0.13,meteohub,2013-09-11 15:17:00,
2013-09-11 09:22:00,51.4,50.5,30.07,NW,315,2.0,4.0,97,0.00,,,0.13,meteohub,2013-09-11 15:22:00,
2013-09-11 09:32:00,51.6,50.7,30.07,NW,315,3.0,4.0,97,0.00,,,0.13,meteohub,2013-09-11 15:32:00,
2013-09-11 09:42:00,51.8,50.9,30.06,NE,45,3.0,4.0,97,0.00,,,0.13,meteohub,2013-09-11 15:42:00,
2013-09-11 09:47:00,51.6,50.7,30.07,East,90,2.0,4.0,97,0.00,,,0.13,meteohub,2013-09-11 15:47:00,
2013-09-11 09:52:00,51.6,50.7,30.07,East,90,4.0,6.0,97,0.00,,,0.13,meteohub,2013-09-11 15:52:00,
2013-09-11 09:57:00,51.8,50.9,30.07,NE,45,2.0,6.0,97,0.00,,,0.13,meteohub,2013-09-11 15:57:00,
2013-09-11 10:02:00,51.6,50.7,30.08,NNE,23,5.0,5.0,97,0.00,,,0.13,meteohub,2013-09-11 16:02:00,
2013-09-11 10:12:00,51.6,50.7,30.08,SE,135,3.0,5.0,97,0.00,,,0.13,meteohub,2013-09-11 16:12:00,
2013-09-11 10:17:00,51.8,50.9,30.07,SSW,203,1.0,5.0,97,0.01,,,0.14,meteohub,2013-09-11 16:17:00,
2013-09-11 10:22:00,52.2,51.3,30.06,NE,45,2.0,5.0,97,0.02,,,0.15,meteohub,2013-09-11 16:22:00,
2013-09-11 10:27:00,52.3,51.4,30.06,ENE,68,3.0,4.0,97,0.04,,,0.17,meteohub,2013-09-11 16:27:00,
2013-09-11 10:32:00,52.2,51.6,30.07,NW,315,2.0,4.0,98,0.05,,,0.18,meteohub,2013-09-11 16:32:00,
2013-09-11 10:37:00,52.2,51.3,30.07,East,90,4.0,5.0,97,0.06,,,0.19,meteohub,2013-09-11 16:37:00,
2013-09-11 10:42:00,52.0,51.1,30.08,NE,45,4.0,5.0,97,0.07,,,0.20,meteohub,2013-09-11 16:42:00,
2013-09-11 10:47:00,52.2,51.3,30.07,North,0,2.0,4.0,97,0.08,,,0.21,meteohub,2013-09-11 16:47:00,
2013-09-11 10:52:00,52.2,51.3,30.07,NE,45,1.0,5.0,97,0.09,,,0.21,meteohub,2013-09-11 16:52:00,
2013-09-11 10:57:00,52.2,51.3,30.07,NE,45,3.0,5.0,97,0.11,,,0.24,meteohub,2013-09-11 16:57:00,
2013-09-11 11:02:00,52.3,51.4,30.07,North,0,3.0,5.0,97,0.13,,,0.26,meteohub,2013-09-11 17:02:00,
2013-09-11 11:07:00,52.3,51.4,30.07,North,0,3.0,4.0,97,0.13,,,0.26,meteohub,2013-09-11 17:07:00,
2013-09-11 11:12:00,52.3,51.8,30.06,North,0,5.0,5.0,98,0.13,,,0.27,meteohub,2013-09-11 17:12:00,
2013-09-11 11:17:00,52.3,51.4,30.06,ESE,113,4.0,8.0,97,0.14,,,0.28,meteohub,2013-09-11 17:17:00,
2013-09-11 11:22:00,52.5,51.6,30.06,NW,315,2.0,8.0,97,0.13,,,0.28,meteohub,2013-09-11 17:22:00,
2013-09-11 11:27:00,52.7,52.2,30.06,North,0,3.0,8.0,98,0.14,,,0.31,meteohub,2013-09-11 17:27:00,
2013-09-11 11:32:00,52.5,51.6,30.06,NE,45,3.0,6.0,97,0.15,,,0.33,meteohub,2013-09-11 17:32:00,
2013-09-11 11:37:00,52.3,51.4,30.06,SE,135,3.0,7.0,97,0.14,,,0.33,meteohub,2013-09-11 17:37:00,
2013-09-11 11:42:00,52.5,51.6,30.06,North,0,2.0,7.0,97,0.14,,,0.34,meteohub,2013-09-11 17:42:00,
2013-09-11 11:47:00,52.5,51.6,30.06,East,90,2.0,7.0,97,0.15,,,0.37,meteohub,2013-09-11 17:47:00,
2013-09-11 11:52:00,52.9,52.0,30.05,North,0,4.0,5.0,97,0.15,,,0.38,meteohub,2013-09-11 17:52:00,
2013-09-11 11:57:00,52.7,51.8,30.06,ENE,68,2.0,5.0,97,0.15,,,0.39,meteohub,2013-09-11 17:57:00,
2013-09-11 12:02:00,52.7,51.8,30.06,East,90,3.0,5.0,97,0.13,,,0.39,meteohub,2013-09-11 18:02:00,
2013-09-11 12:07:00,52.7,51.8,30.06,East,90,3.0,5.0,97,0.14,,,0.40,meteohub,2013-09-11 18:07:00,
2013-09-11 12:12:00,52.2,51.3,30.06,NW,315,3.0,4.0,97,0.14,,,0.43,meteohub,2013-09-11 18:12:00,
2013-09-11 12:17:00,52.5,51.6,30.06,East,90,3.0,3.0,97,0.14,,,0.43,meteohub,2013-09-11 18:17:00,
2013-09-11 12:22:00,52.7,51.8,30.06,East,90,2.0,3.0,97,0.14,,,0.43,meteohub,2013-09-11 18:22:00,
2013-09-11 12:27:00,52.5,51.6,30.06,East,90,4.0,4.0,97,0.12,,,0.44,meteohub,2013-09-11 18:27:00,
2013-09-11 12:32:00,52.9,52.0,30.05,NE,45,4.0,4.0,97,0.12,,,0.45,meteohub,2013-09-11 18:32:00,
2013-09-11 12:37:00,52.9,52.0,30.05,East,90,4.0,5.0,97,0.13,,,0.46,meteohub,2013-09-11 18:37:00,
2013-09-11 12:42:00,53.2,52.3,30.04,NE,45,3.0,5.0,97,0.13,,,0.47,meteohub,2013-09-11 18:42:00,
2013-09-11 12:47:00,53.6,52.7,30.04,North,0,4.0,5.0,97,0.12,,,0.48,meteohub,2013-09-11 18:47:00,
2013-09-11 12:57:00,53.4,52.3,30.04,East,90,4.0,4.0,96,0.12,,,0.51,meteohub,2013-09-11 18:57:00,
2013-09-11 13:02:00,53.2,52.2,30.05,SE,135,1.0,5.0,96,0.12,,,0.52,meteohub,2013-09-11 19:02:00,
2013-09-11 13:07:00,53.2,52.2,30.05,SE,135,1.0,5.0,96,0.12,,,0.52,meteohub,2013-09-11 19:07:00,
2013-09-11 13:12:00,53.2,52.2,30.05,North,0,3.0,5.0,96,0.09,,,0.52,meteohub,2013-09-11 19:12:00,
2013-09-11 13:22:00,53.6,52.5,30.04,East,90,3.0,4.0,96,0.13,,,0.56,meteohub,2013-09-11 19:22:00,
2013-09-11 13:27:00,53.6,52.2,30.04,East,90,4.0,4.0,95,0.13,,,0.57,meteohub,2013-09-11 19:27:00,
2013-09-11 13:32:00,54.0,52.5,30.03,North,0,2.0,4.0,95,0.13,,,0.58,meteohub,2013-09-11 19:32:00,
2013-09-11 13:37:00,54.3,52.9,30.02,NE,45,4.0,5.0,95,0.11,,,0.58,meteohub,2013-09-11 19:37:00,
2013-09-11 13:42:00,53.8,52.3,30.03,East,90,5.0,5.0,95,0.11,,,0.58,meteohub,2013-09-11 19:42:00,
2013-09-11 13:52:00,54.0,52.3,30.03,East,90,3.0,5.0,94,0.09,,,0.59,meteohub,2013-09-11 19:52:00,
2013-09-11 13:57:00,54.1,52.5,30.02,NE,45,4.0,5.0,94,0.07,,,0.59,meteohub,2013-09-11 19:57:00,
2013-09-11 14:02:00,54.0,52.3,30.02,North,0,2.0,4.0,94,0.07,,,0.59,meteohub,2013-09-11 20:02:00,
2013-09-11 14:07:00,54.0,52.3,30.02,North,0,2.0,4.0,94,0.07,,,0.59,meteohub,2013-09-11 20:07:00,
2013-09-11 14:12:00,54.5,53.1,30.01,North,0,2.0,4.0,95,0.05,,,0.59,meteohub,2013-09-11 20:12:00,
2013-09-11 14:17:00,54.3,52.7,30.02,NE,45,4.0,5.0,94,0.05,,,0.59,meteohub,2013-09-11 20:17:00,
2013-09-11 14:22:00,53.6,52.0,30.03,NE,45,5.0,7.0,94,0.04,,,0.59,meteohub,2013-09-11 20:22:00,
2013-09-11 14:27:00,53.6,52.0,30.04,NW,315,2.0,10.0,94,0.02,,,0.59,meteohub,2013-09-11 20:27:00,
2013-09-11 14:32:00,53.6,52.0,30.03,North,0,4.0,10.0,94,0.01,,,0.59,meteohub,2013-09-11 20:32:00,
2013-09-11 14:37:00,53.6,52.2,30.03,SE,135,6.0,10.0,95,0.01,,,0.59,meteohub,2013-09-11 20:37:00,
2013-09-11 14:42:00,53.6,52.2,30.03,East,90,8.0,8.0,95,0.00,,,0.59,meteohub,2013-09-11 20:42:00,
2013-09-11 14:47:00,53.8,52.3,30.02,NW,315,2.0,8.0,95,0.00,,,0.59,meteohub,2013-09-11 20:47:00,
2013-09-11 14:52:00,53.4,52.0,30.03,North,0,8.0,8.0,95,0.00,,,0.59,meteohub,2013-09-11 20:52:00,
2013-09-11 14:57:00,53.4,52.0,30.03,SSE,158,3.0,8.0,95,0.00,,,0.59,meteohub,2013-09-11 20:57:00,
2013-09-11 15:02:00,53.2,51.8,30.04,NE,45,5.0,8.0,95,0.00,,,0.59,meteohub,2013-09-11 21:02:00,
2013-09-11 15:07:00,53.2,51.8,30.04,NE,45,5.0,8.0,95,0.00,,,0.59,meteohub,2013-09-11 21:07:00,
2013-09-11 15:12:00,54.7,53.6,30.01,North,0,3.0,7.0,96,0.00,,,0.59,meteohub,2013-09-11 21:12:00,
2013-09-11 15:17:00,55.0,54.0,30.01,NNW,338,2.0,5.0,96,0.00,,,0.59,meteohub,2013-09-11 21:17:00,
2013-09-11 15:27:00,55.4,53.8,30.00,NE,45,4.0,7.0,94,0.00,,,0.59,meteohub,2013-09-11 21:27:00,
2013-09-11 15:32:00,55.0,53.1,30.01,East,90,6.0,7.0,93,0.00,,,0.59,meteohub,2013-09-11 21:32:00,
2013-09-11 15:37:00,54.9,52.5,30.01,NE,45,6.0,7.0,92,0.00,,,0.59,meteohub,2013-09-11 21:37:00,
2013-09-11 15:42:00,54.9,52.5,30.00,NE,45,2.0,6.0,92,0.00,,,0.59,meteohub,2013-09-11 21:42:00,
2013-09-11 15:47:00,55.0,52.7,30.01,East,90,3.0,6.0,92,0.00,,,0.59,meteohub,2013-09-11 21:47:00,
2013-09-11 15:52:00,54.7,52.2,30.01,NE,45,4.0,6.0,91,0.00,,,0.59,meteohub,2013-09-11 21:52:00,
2013-09-11 15:57:00,54.9,52.5,30.01,East,90,3.0,5.0,92,0.00,,,0.59,meteohub,2013-09-11 21:57:00,
2013-09-11 16:02:00,54.7,52.2,30.01,East,90,5.0,5.0,91,0.00,,,0.59,meteohub,2013-09-11 22:02:00,
2013-09-11 16:07:00,54.7,52.2,30.00,East,90,5.0,5.0,91,0.00,,,0.59,meteohub,2013-09-11 22:07:00,
2013-09-11 16:12:00,54.0,51.6,30.01,NE,45,4.0,5.0,92,0.00,,,0.59,meteohub,2013-09-11 22:12:00,
2013-09-11 16:17:00,53.8,51.4,30.02,East,90,2.0,5.0,92,0.00,,,0.59,meteohub,2013-09-11 22:17:00,
2013-09-11 16:22:00,54.0,51.6,30.02,East,90,3.0,5.0,92,0.00,,,0.59,meteohub,2013-09-11 22:22:00,
2013-09-11 16:27:00,53.8,51.8,30.02,East,90,3.0,4.0,93,0.00,,,0.59,meteohub,2013-09-11 22:27:00,
2013-09-11 16:32:00,53.8,51.8,30.02,NE,45,2.0,5.0,93,0.00,,,0.59,meteohub,2013-09-11 22:32:00,
2013-09-11 16:42:00,53.4,51.4,30.02,East,90,4.0,5.0,93,0.00,,,0.59,meteohub,2013-09-11 22:42:00,
2013-09-11 16:47:00,53.1,51.4,30.03,NE,45,2.0,8.0,94,0.00,,,0.59,meteohub,2013-09-11 22:47:00,
2013-09-11 16:52:00,52.9,51.3,30.04,SE,135,2.0,8.0,94,0.00,,,0.59,meteohub,2013-09-11 22:52:00,
2013-09-11 16:57:00,53.1,51.4,30.04,NE,45,3.0,7.0,94,0.00,,,0.59,meteohub,2013-09-11 22:57:00,
2013-09-11 17:02:00,53.1,51.4,30.03,NE,45,4.0,5.0,94,0.00,,,0.59,meteohub,2013-09-11 23:02:00,
2013-09-11 17:12:00,53.1,51.6,30.03,North,0,4.0,4.0,95,0.02,,,0.61,meteohub,2013-09-11 23:12:00,
2013-09-11 17:17:00,52.9,51.4,30.04,NE,45,4.0,6.0,95,0.04,,,0.63,meteohub,2013-09-11 23:17:00,
2013-09-11 17:22:00,52.9,51.4,30.04,NE,45,4.0,6.0,95,0.05,,,0.64,meteohub,2013-09-11 23:22:00,
2013-09-11 17:27:00,53.1,51.6,30.03,North,0,4.0,6.0,95,0.07,,,0.66,meteohub,2013-09-11 23:27:00,
2013-09-11 17:32:00,53.1,51.6,30.04,North,0,2.0,4.0,95,0.08,,,0.67,meteohub,2013-09-11 23:32:00,
2013-09-11 17:37:00,52.7,51.3,30.04,NE,45,5.0,5.0,95,0.09,,,0.69,meteohub,2013-09-11 23:37:00,
2013-09-11 17:42:00,52.7,51.3,30.04,East,90,2.0,5.0,95,0.11,,,0.70,meteohub,2013-09-11 23:42:00,
2013-09-11 17:47:00,52.5,51.1,30.04,SE,135,1.0,5.0,95,0.13,,,0.72,meteohub,2013-09-11 23:47:00,
2013-09-11 17:52:00,52.5,51.1,30.05,NE,45,2.0,5.0,95,0.15,,,0.74,meteohub,2013-09-11 23:52:00,
2013-09-11 17:57:00,52.5,51.1,30.04,NNW,338,2.0,4.0,95,0.19,,,0.78,meteohub,2013-09-11 23:57:00,
2013-09-11 18:02:00,52.5,51.1,30.04,North,0,2.0,2.0,95,0.20,,,0.79,meteohub,2013-09-12 00:02:00,
2013-09-11 18:07:00,52.5,51.1,30.04,North,0,2.0,2.0,95,0.21,,,0.80,meteohub,2013-09-12 00:07:00,
2013-09-11 18:12:00,52.3,50.9,30.04,North,0,3.0,4.0,95,0.25,,,0.86,meteohub,2013-09-12 00:12:00,
2013-09-11 18:17:00,52.5,51.1,30.04,NE,45,3.0,5.0,95,0.25,,,0.87,meteohub,2013-09-12 00:17:00,
2013-09-11 18:22:00,52.5,51.1,30.04,NE,45,4.0,5.0,95,0.26,,,0.90,meteohub,2013-09-12 00:22:00,
2013-09-11 18:32:00,52.5,51.1,30.04,North,0,2.0,4.0,95,0.25,,,0.92,meteohub,2013-09-12 00:32:00,
2013-09-11 18:37:00,52.5,51.1,30.04,NW,315,2.0,4.0,95,0.26,,,0.94,meteohub,2013-09-12 00:37:00,
2013-09-11 18:42:00,52.3,51.3,30.04,North,0,2.0,2.0,96,0.26,,,0.96,meteohub,2013-09-12 00:42:00,
2013-09-11 18:47:00,52.5,51.4,30.04,North,0,2.0,2.0,96,0.22,,,0.96,meteohub,2013-09-12 00:47:00,
2013-09-11 18:52:00,52.3,51.3,30.05,North,0,3.0,4.0,96,0.20,,,0.96,meteohub,2013-09-12 00:52:00,
2013-09-11 18:57:00,52.2,51.1,30.05,North,0,1.0,5.0,96,0.18,,,0.96,meteohub,2013-09-12 00:57:00,
2013-09-11 19:02:00,52.3,51.3,30.04,North,0,2.0,5.0,96,0.15,,,0.96,meteohub,2013-09-12 01:02:00,
2013-09-11 19:07:00,52.3,51.3,30.04,North,0,2.0,5.0,96,0.15,,,0.96,meteohub,2013-09-12 01:07:00,
2013-09-11 19:12:00,52.2,51.1,30.05,North,0,2.0,3.0,96,0.09,,,0.96,meteohub,2013-09-12 01:12:00,
2013-09-11 19:17:00,52.3,51.3,30.05,East,90,2.0,4.0,96,0.08,,,0.97,meteohub,2013-09-12 01:17:00,
2013-09-11 19:22:00,52.3,51.3,30.05,NE,45,3.0,4.0,96,0.09,,,0.99,meteohub,2013-09-12 01:22:00,
2013-09-11 19:27:00,52.3,51.3,30.05,NW,315,4.0,4.0,96,0.07,,,0.99,meteohub,2013-09-12 01:27:00,
2013-09-11 19:32:00,52.2,51.1,30.06,North,0,4.0,7.0,96,0.07,,,1.00,meteohub,2013-09-12 01:32:00,
2013-09-11 19:37:00,52.0,50.9,30.06,NNE,23,2.0,7.0,96,0.08,,,1.04,meteohub,2013-09-12 01:37:00,
2013-09-11 19:42:00,52.0,50.9,30.06,NE,45,3.0,7.0,96,0.08,,,1.04,meteohub,2013-09-12 01:42:00,
2013-09-11 19:47:00,51.8,50.7,30.06,SE,135,2.0,4.0,96,0.11,,,1.06,meteohub,2013-09-12 01:47:00,
2013-09-11 19:52:00,51.8,50.7,30.06,North,0,5.0,5.0,96,0.12,,,1.06,meteohub,2013-09-12 01:52:00,
2013-09-11 19:57:00,51.8,50.7,30.06,East,90,3.0,5.0,96,0.13,,,1.09,meteohub,2013-09-12 01:57:00,
2013-09-11 20:02:00,51.8,50.7,30.07,NE,45,2.0,5.0,96,0.15,,,1.11,meteohub,2013-09-12 02:02:00,
2013-09-11 20:07:00,51.8,50.7,30.08,NE,45,2.0,5.0,96,0.15,,,1.11,meteohub,2013-09-12 02:07:00,
2013-09-11 20:12:00,51.8,50.7,30.08,East,90,2.0,3.0,96,0.19,,,1.16,meteohub,2013-09-12 02:12:00,
2013-09-11 20:17:00,51.6,50.5,30.09,NE,45,2.0,2.0,96,0.20,,,1.18,meteohub,2013-09-12 02:17:00,
2013-09-11 20:22:00,51.6,50.5,30.09,NE,45,4.0,4.0,96,0.20,,,1.19,meteohub,2013-09-12 02:22:00,
2013-09-11 20:27:00,51.6,50.5,30.09,NW,315,2.0,4.0,96,0.22,,,1.22,meteohub,2013-09-12 02:27:00,
2013-09-11 20:32:00,51.6,50.7,30.08,North,0,2.0,4.0,97,0.21,,,1.23,meteohub,2013-09-12 02:32:00,
2013-09-11 20:37:00,51.4,50.4,30.09,SE,135,1.0,4.0,96,0.20,,,1.24,meteohub,2013-09-12 02:37:00,
2013-09-11 20:42:00,51.6,50.5,30.09,North,0,1.0,2.0,96,0.21,,,1.26,meteohub,2013-09-12 02:42:00,
2013-09-11 20:47:00,51.6,50.5,30.09,West,270,2.0,2.0,96,0.24,,,1.30,meteohub,2013-09-12 02:47:00,
2013-09-11 20:52:00,51.6,50.5,30.09,NW,315,2.0,2.0,96,0.22,,,1.30,meteohub,2013-09-12 02:52:00,
2013-09-11 20:57:00,51.6,50.5,30.09,NE,45,2.0,2.0,96,0.22,,,1.31,meteohub,2013-09-12 02:57:00,
2013-09-11 21:07:00,51.6,50.7,30.09,North,0,2.0,2.0,97,0.22,,,1.33,meteohub,2013-09-12 03:07:00,
2013-09-11 21:12:00,51.6,50.7,30.09,SW,225,2.0,2.0,97,0.19,,,1.36,meteohub,2013-09-12 03:12:00,
2013-09-11 21:17:00,51.4,50.5,30.09,NE,45,1.0,2.0,97,0.19,,,1.37,meteohub,2013-09-12 03:17:00,
2013-09-11 21:27:00,51.6,50.7,30.09,North,0,3.0,3.0,97,0.25,,,1.46,meteohub,2013-09-12 03:27:00,
2013-09-11 21:37:00,51.6,50.7,30.09,East,90,2.0,4.0,97,0.26,,,1.50,meteohub,2013-09-12 03:37:00,
2013-09-11 21:42:00,51.6,50.7,30.09,East,90,4.0,4.0,97,0.25,,,1.51,meteohub,2013-09-12 03:42:00,
2013-09-11 21:52:00,51.8,50.9,30.09,North,0,2.0,4.0,97,0.21,,,1.52,meteohub,2013-09-12 03:52:00,
2013-09-11 21:57:00,51.8,50.9,30.09,North,0,0.0,4.0,97,0.21,,,1.52,meteohub,2013-09-12 03:57:00,
2013-09-11 22:02:00,51.8,50.9,30.09,NW,315,2.0,4.0,97,0.20,,,1.54,meteohub,2013-09-12 04:02:00,
2013-09-11 22:07:00,51.8,50.9,30.09,NW,315,2.0,2.0,97,0.20,,,1.54,meteohub,2013-09-12 04:07:00,
2013-09-11 22:12:00,51.8,50.9,30.09,NW,315,2.0,2.0,97,0.18,,,1.54,meteohub,2013-09-12 04:12:00,
2013-09-11 22:17:00,51.6,50.7,30.09,NW,315,2.0,2.0,97,0.18,,,1.56,meteohub,2013-09-12 04:17:00,
2013-09-11 22:22:00,51.8,50.9,30.09,NE,45,1.0,2.0,97,0.13,,,1.56,meteohub,2013-09-12 04:22:00,
2013-09-11 22:27:00,51.8,50.9,30.09,East,90,2.0,2.0,97,0.09,,,1.56,meteohub,2013-09-12 04:27:00,
2013-09-11 22:32:00,51.8,50.9,30.09,North,0,1.0,2.0,97,0.09,,,1.58,meteohub,2013-09-12 04:32:00,
2013-09-11 22:37:00,51.8,50.9,30.09,SE,135,2.0,2.0,97,0.11,,,1.61,meteohub,2013-09-12 04:37:00,
2013-09-11 22:42:00,51.8,50.9,30.09,South,180,1.0,2.0,97,0.12,,,1.63,meteohub,2013-09-12 04:42:00,
2013-09-11 22:52:00,51.6,50.7,30.09,NW,315,1.0,2.0,97,0.13,,,1.64,meteohub,2013-09-12 04:52:00,
2013-09-11 22:57:00,51.6,50.7,30.09,NW,315,0.0,2.0,97,0.13,,,1.65,meteohub,2013-09-12 04:57:00,
2013-09-11 23:02:00,51.4,50.5,30.09,East,90,0.0,2.0,97,0.13,,,1.67,meteohub,2013-09-12 05:02:00,
2013-09-11 23:07:00,51.4,50.5,30.09,East,90,0.0,2.0,97,0.13,,,1.67,meteohub,2013-09-12 05:07:00,
2013-09-11 23:12:00,51.3,50.4,30.09,NW,315,2.0,2.0,97,0.12,,,1.67,meteohub,2013-09-12 05:12:00,
2013-09-11 23:17:00,51.3,50.4,30.09,NE,45,2.0,2.0,97,0.12,,,1.68,meteohub,2013-09-12 05:17:00,
2013-09-11 23:22:00,51.1,50.2,30.10,West,270,2.0,2.0,97,0.13,,,1.69,meteohub,2013-09-12 05:22:00,
2013-09-11 23:27:00,51.1,50.2,30.10,NE,45,3.0,3.0,97,0.12,,,1.69,meteohub,2013-09-12 05:27:00,
2013-09-11 23:32:00,51.1,50.2,30.10,NE,45,2.0,3.0,97,0.11,,,1.70,meteohub,2013-09-12 05:32:00,
2013-09-11 23:37:00,50.9,50.0,30.10,NE,45,2.0,3.0,97,0.09,,,1.70,meteohub,2013-09-12 05:37:00,
2013-09-11 23:42:00,51.1,50.2,30.10,North,0,2.0,3.0,97,0.08,,,1.71,meteohub,2013-09-12 05:42:00,
2013-09-11 23:47:00,51.1,50.2,30.09,South,180,4.0,4.0,97,0.08,,,1.72,meteohub,2013-09-12 05:47:00,
2013-09-11 23:52:00,50.9,50.0,30.10,East,90,6.0,6.0,97,0.07,,,1.72,meteohub,2013-09-12 05:52:00,
2013-09-11 23:57:00,50.9,50.0,30.10,NE,45,5.0,6.0,97,0.08,,,1.74,meteohub,2013-09-12 05:57:00,